Regional Weather Roundup
Issued by NWS

Home | Current Version | Previous Version | Graphics & Text | Print | Product List | Glossary On
Versions: 1 2 3 4 5 6 7 8 9 10 11 12 13 14 15 16 17 18 19 20 21 22 23 24 25 26 27 28 29 30 31 32 33 34 35 36 37 38 39 40 41 42 43 44 45 46 47 48 49 50
000
ASUS43 KLSX 252057
RWRMO

WEATHER SUMMARY FOR MISSOURI
NATIONAL WEATHER SERVICE SPRINGFIELD MO
300 PM CST SUN FEB 25 2018

NOTE: "FAIR" INDICATES FEW OR NO CLOUDS BELOW 12,000 FEET WITH NO
       SIGNIFICANT WEATHER AND/OR OBSTRUCTIONS TO VISIBILITY.
       CURRENT SKY AND/OR WEATHER CONDITIONS ARE NOT AVAILABLE FOR
       CHILLICOTHE AND FARMINGTON.

MOZ001>031-035>038-043-044-053-054-252200-
...NORTHERN AND WESTERN MISSOURI...

CITY           SKY/WX    TMP DP  RH WIND       PRES   REMARKS
KANSAS CTY INT MOSUNNY   51  20  29 SW10G18   30.04F
LEE`S SUMMIT   CLOUDY    49  23  36 SW15      30.06S
ST JOSEPH      CLOUDY    48  24  39 W9        30.05S
CHILLICOTHE      N/A     50  21  32 SW9       30.06S

$$
MOZ066>068-077>081-088>096-101>105-252200-
...SOUTHWEST MISSOURI...

CITY           SKY/WX    TMP DP  RH WIND       PRES   REMARKS
SPRINGFIELD    SUNNY     54  29  38 SE5       30.04F
JOPLIN         SUNNY     54  32  43 CALM      30.05F
BRANSON        MOSUNNY   55  28  35 SE10G16   30.07F

$$
MOZ032>034-039>042-045>050-055>058-069>072-252200-
...CENTRAL MISSOURI...

CITY           SKY/WX    TMP DP  RH WIND       PRES   REMARKS
COLUMBIA       NOT AVBL
JEFFERSON CITY SUNNY     51  24  34 SW10      30.10R
ROLLA          SUNNY     50  28  42 SW6       30.08F
SEDALIA        MOSUNNY   49  26  41 SW6       30.09S
WARRENSBURG    SUNNY     50  23  34 SW3       30.08S

$$
MOZ051-052-059>065-252200-
...EAST CENTRAL MISSOURI...

CITY           SKY/WX    TMP DP  RH WIND       PRES   REMARKS
ST LOUIS INTL  MOSUNNY   52  22  30 W10       30.10R

$$
MOZ072>076-082>087-097>100-106>115-252200-
...SOUTH CENTRAL AND SOUTHEAST MISSOURI...

CITY           SKY/WX    TMP DP  RH WIND       PRES   REMARKS
CAPE GIRARDEAU FAIR      51  23  33 VRB3      30.12R
POPLAR BLUFF   FAIR      51  36  56 S8        30.12R
WEST PLAINS    SUNNY     53  30  41 VRB3      30.09S

$$


USA.gov is the U.S. government's official web portal to all federal, state and local government web resources and services.